This is the latest recevied weather packets stored in our database for station/object N6GPM. If no packets are shown the sender has not sent any weather packets the latest 10 day(s).
| Time | Temp. | Humidity | Pressure | Rain* | Wind** | Luminosity | Snow |
|---|---|---|---|---|---|---|---|
| 1787943836 | 36.67° C | 31% | 1017.8 hPa | 0 mm | - | 965 W/m² | - |
| 1787943531 | 38.33° C | 29% | 1017.9 hPa | 0 mm | - | 1003 W/m² | - |
| 1787943226 | 37.78° C | 27% | 1017.8 hPa | 0 mm | - | 1022 W/m² | - |
| 1787942925 | 37.22° C | 27% | 1018 hPa | 0 mm | - | 814 W/m² | - |
| 1787942622 | 36.67° C | 27% | 1018 hPa | 0 mm | - | 1009 W/m² | - |
| 1787942321 | 36.67° C | 28% | 1017.8 hPa | 0 mm | - | 1056 W/m² | - |
| 1787942016 | 36.11° C | 29% | 1018 hPa | 0 mm | - | 1127 W/m² | - |
| 1787941711 | 36.11° C | 29% | 1018.1 hPa | 0 mm | - | 879 W/m² | - |
| 1787941410 | 35.56° C | 29% | 1017.9 hPa | 0 mm | - | 921 W/m² | - |
| 1787941109 | 35.56° C | 30% | 1018 hPa | 0 mm | - | 659 W/m² | - |
| 1787940805 | 35.56° C | 31% | 1018.2 hPa | 0 mm | - | 509 W/m² | - |
| 1787940501 | 35.56° C | 30% | 1018 hPa | 0 mm | - | 979 W/m² | - |
| 1787940196 | 35° C | 32% | 1018.2 hPa | 0 mm | - | 693 W/m² | - |
| 1787939895 | 34.44° C | 33% | 1018.2 hPa | 0 mm | - | 802 W/m² | - |
| 1787939584 | 35° C | 33% | 1018.3 hPa | 0 mm | - | 728 W/m² | - |
| 1787939280 | 34.44° C | 34% | 1018.1 hPa | 0 mm | - | 595 W/m² | - |
| 1787938974 | 34.44° C | 34% | 1018.1 hPa | 0 mm | - | 662 W/m² | - |
| 1787938673 | 34.44° C | 35% | 1018.4 hPa | 0 mm | - | 645 W/m² | - |
| 1787938370 | 35° C | 34% | 1018.2 hPa | 0 mm | - | 647 W/m² | - |
| 1787938070 | 35° C | 34% | 1018.3 hPa | 0 mm | - | 634 W/m² | - |
| 1787937765 | 33.89° C | 36% | 1018.5 hPa | 0 mm | - | 691 W/m² | - |
| 1787937461 | 34.44° C | 36% | 1018.4 hPa | 0 mm | - | 753 W/m² | - |
| 1787937157 | 34.44° C | 35% | 1018.3 hPa | 0 mm | - | 731 W/m² | - |
| 1787936857 | 33.89° C | 36% | 1018.3 hPa | 0 mm | - | 738 W/m² | - |
| 1787936551 | 33.89° C | 37% | 1018.3 hPa | 0 mm | - | 409 W/m² | - |
* Rain latest hour (hover to see other rain measurements)
** Current wind speed in m/s (hover to see current wind gust speed)